Hulett, WY

12:06 PM MDT on August 20, 2019 (GMT -0600)
Hulett

Weather History for KW43 - May, 2019

Change the Weather History Date:

Saturday, May 18, 2019

  Actual Average (KEFC) Record (KEFC)
Temperature  
Mean Temperature 34 °F -  
Max Temperature 37 °F 73 °F 95 °F (1948)
Min Temperature 32 °F 43 °F 34 °F (1952)
Degree Days  
Heating Degree Days 30    
Moisture  
Dew Point 32 °F    
Average Humidity 98    
Maximum Humidity 100    
Minimum Humidity 93    
Precipitation  
Precipitation 0.16 in - - ()
Sea Level Pressure  
Sea Level Pressure 29.84 in    
Wind  
Wind Speed 8 mph (NNE)    
Max Wind Speed 12 mph    
Max Gust Speed 16 mph    
Visibility 2 miles    
Events Rain , Snow    
Averages and records for this station are not official NWS values.
T = Trace of Precipitation, MM = Missing Value Source: NWS Daily Summary

Daily Weather History Graph

Daily Weather History Graph

Search for Another Location

Airport or City:

Astronomy

May. 18, 2019 Rise Set
Actual Time 5:27 AM MDT 8:22 PM MDT
Civil Twilight 4:52 AM MDT 8:57 PM MDT
Nautical Twilight 4:09 AM MDT 9:41 PM MDT
Astronomical Twilight 3:17 AM MDT 10:33 PM MDT
Moon 8:18 PM MDT (5/18) 5:39 AM MDT (5/18)
Length of Visible Light 16h 04m
Length of Day
14h 55m
Full, 100% of the Moon is Illuminated
May 18
Full
May 18
Full
May 26
Last Quarter
Jun 3
New
Jun 10
First Quarter

Hourly Weather History & Observations

Time (MDT) Temp. Windchill Dew Point Humidity Pressure Visibility Wind Dir Wind Speed Gust Speed Precip Events Conditions
12:15 AM 37.4 °F 31.4 °F 35.6 °F 93% 29.71 in 4.0 mi ENE 8.1 mph - N/A   Overcast
12:35 AM 37.4 °F 29.8 °F 35.6 °F 93% 29.71 in 3.0 mi ENE 11.5 mph - N/A   Drizzle
12:55 AM 37.4 °F 31.4 °F 35.6 °F 93% 29.70 in 2.0 mi ENE 8.1 mph 16.1 mph 0.01 in Rain Light Rain
1:15 AM 35.6 °F 28.6 °F 35.6 °F 100% 29.70 in 5.0 mi ENE 9.2 mph - N/A Rain Light Rain
1:35 AM 35.6 °F 29.2 °F 35.6 °F 100% 29.71 in 4.0 mi ENE 8.1 mph - N/A Rain Light Rain
1:55 AM 35.6 °F 29.2 °F 35.6 °F 100% 29.70 in 3.0 mi ENE 8.1 mph - 0.02 in   Overcast
2:15 AM 35.6 °F 29.9 °F 33.8 °F 93% 29.71 in 4.0 mi ENE 6.9 mph - N/A   Overcast
2:35 AM 33.8 °F - 33.8 °F 100% 29.71 in 2.5 mi North - - 0.01 in Snow Light Snow
2:55 AM 33.8 °F 28.6 °F 32.0 °F 93% 29.71 in 1.2 mi NE 5.8 mph - 0.03 in Snow Light Snow
3:15 AM 33.8 °F - 32.0 °F 93% 29.71 in 1.0 mi North - - 0.01 in Snow Light Snow
3:35 AM 33.8 °F 27.7 °F 32.0 °F 93% 29.71 in 1.2 mi NNE 6.9 mph - 0.03 in Snow Light Snow
3:55 AM 33.8 °F 27.7 °F 32.0 °F 93% 29.72 in 1.0 mi NNE 6.9 mph - 0.05 in Snow Light Snow
4:15 AM 33.8 °F 28.6 °F 32.0 °F 93% 29.72 in 0.5 mi NNE 5.8 mph - 0.01 in Snow Light Snow
4:35 AM 32.0 °F - 32.0 °F 100% 29.72 in 0.5 mi North - - 0.02 in Snow Light Snow
4:55 AM 32.0 °F 27.5 °F 32.0 °F 100% 29.72 in 0.2 mi NNE 4.6 mph - 0.02 in Snow Light Snow
5:15 AM 32.0 °F 27.5 °F 32.0 °F 100% 29.72 in 0.2 mi North 4.6 mph - 0.01 in Snow Light Snow
5:35 AM 32.0 °F - 32.0 °F 100% 29.72 in 0.2 mi Calm Calm - 0.01 in Snow Light Snow
5:55 AM 32.0 °F 26.4 °F 32.0 °F 100% 29.72 in 0.5 mi North 5.8 mph - 0.01 in Snow Light Snow
6:15 AM 32.0 °F 25.6 °F 32.0 °F 100% 29.73 in 0.5 mi North 6.9 mph - 0.01 in Snow Light Snow
6:35 AM 32.0 °F 26.4 °F 32.0 °F 100% 29.74 in 0.8 mi North 5.8 mph - 0.01 in Snow Light Snow
6:55 AM 32.0 °F 26.4 °F 32.0 °F 100% 29.74 in 1.0 mi North 5.8 mph - 0.01 in Snow Light Snow
7:15 AM 32.0 °F 26.4 °F 32.0 °F 100% 29.75 in 0.5 mi North 5.8 mph - N/A Snow Light Snow
7:35 AM 32.0 °F 25.6 °F 32.0 °F 100% 29.75 in 0.5 mi NNW 6.9 mph - 0.01 in Snow Light Snow
7:55 AM 32.0 °F 25.6 °F 32.0 °F 100% 29.76 in 1.2 mi NNW 6.9 mph - 0.01 in Snow Light Snow
8:15 AM 32.0 °F 24.2 °F 32.0 °F 100% 29.77 in 1.2 mi North 9.2 mph - N/A Snow Light Snow
8:35 AM 32.0 °F 25.6 °F 32.0 °F 100% 29.78 in 0.8 mi North 6.9 mph - N/A Snow Light Snow
8:55 AM 32.0 °F - 32.0 °F 100% 29.79 in 0.8 mi North - - N/A Snow Light Snow
9:15 AM 32.0 °F - 32.0 °F 100% 29.80 in 1.0 mi North - - N/A Snow Light Snow
9:35 AM 32.0 °F - 32.0 °F 100% 29.80 in 2.0 mi North - - N/A Snow Light Snow
9:55 AM 32.0 °F 24.2 °F 32.0 °F 100% 29.80 in 2.0 mi North 9.2 mph - N/A Snow Light Snow
10:15 AM 32.0 °F 24.8 °F 32.0 °F 100% 29.81 in 1.2 mi North 8.1 mph - N/A Snow Light Snow
10:35 AM 32.0 °F - 32.0 °F 100% 29.82 in 1.0 mi North - - N/A Snow Light Snow
10:55 AM 32.0 °F 24.2 °F 32.0 °F 100% 29.82 in 1.0 mi North 9.2 mph - N/A Snow Light Snow
11:15 AM 32.0 °F 23.6 °F 32.0 °F 100% 29.82 in 1.5 mi North 10.4 mph - N/A Snow Light Snow
11:35 AM 33.8 °F 25.3 °F 32.0 °F 93% 29.82 in 1.0 mi NNE 11.5 mph - N/A Snow Light Snow
11:55 AM 33.8 °F 27.7 °F 32.0 °F 93% 29.83 in 1.2 mi North 6.9 mph - N/A Snow Light Snow
12:15 PM 33.8 °F - 32.0 °F 93% 29.83 in 1.0 mi North - - N/A Snow Light Snow
12:35 PM 33.8 °F - 32.0 °F 93% 29.83 in 1.5 mi North - - N/A Snow Light Snow
12:55 PM 33.8 °F 25.3 °F 32.0 °F 93% 29.84 in 4.0 mi North 11.5 mph - N/A Snow Light Snow
1:15 PM 33.8 °F - 32.0 °F 93% 29.85 in 5.0 mi North - - N/A Snow Light Snow
1:35 PM 33.8 °F - 32.0 °F 93% 29.86 in 4.0 mi North - - N/A   Overcast
1:55 PM 33.8 °F - 32.0 °F 93% 29.86 in 7.0 mi North - - N/A   Overcast
2:15 PM 33.8 °F - 32.0 °F 93% 29.86 in 5.0 mi North - - N/A   Overcast
2:35 PM 33.8 °F 25.3 °F 32.0 °F 93% 29.87 in 10.0 mi North 11.5 mph - N/A   Overcast
2:55 PM 33.8 °F 25.8 °F 32.0 °F 93% 29.87 in 10.0 mi North 10.4 mph - N/A   Overcast
3:15 PM 33.8 °F 26.4 °F 32.0 °F 93% 29.88 in 10.0 mi North 9.2 mph - N/A   Overcast
3:35 PM 33.8 °F - 32.0 °F 93% 29.88 in 5.0 mi North - - N/A Snow Light Snow
3:55 PM 33.8 °F - 32.0 °F 93% 29.89 in 2.5 mi North - - N/A Snow Light Snow
4:15 PM 33.8 °F - 32.0 °F 93% 29.91 in 1.8 mi North - - N/A Snow Light Snow
4:35 PM 32.0 °F 24.8 °F 32.0 °F 100% 29.91 in 2.5 mi NNW 8.1 mph 16.1 mph N/A Snow Light Snow
4:55 PM 32.0 °F 24.2 °F 32.0 °F 100% 29.92 in 1.5 mi NNW 9.2 mph - N/A Snow Light Snow
5:15 PM 32.0 °F 23.0 °F 32.0 °F 100% 29.93 in 1.5 mi NNW 11.5 mph - N/A Snow Light Snow
5:35 PM 32.0 °F 24.2 °F 32.0 °F 100% 29.93 in 1.8 mi North 9.2 mph - N/A Snow Light Snow
5:55 PM 32.0 °F - 32.0 °F 100% 29.93 in 1.8 mi North - - N/A Snow Light Snow
6:15 PM 32.0 °F - 32.0 °F 100% 29.93 in 1.8 mi North - - N/A Snow Light Snow
6:35 PM 32.0 °F - 32.0 °F 100% 29.94 in 1.0 mi North - - N/A Snow Light Snow
6:55 PM 32.0 °F 25.6 °F 32.0 °F 100% 29.94 in 3.0 mi North 6.9 mph - N/A Snow Light Snow
7:15 PM 32.0 °F - 32.0 °F 100% 29.95 in 2.5 mi North - - N/A Snow Light Snow
7:35 PM 32.0 °F - 32.0 °F 100% 29.96 in 1.5 mi North - - N/A Snow Light Snow
7:55 PM 32.0 °F - 32.0 °F 100% 29.97 in 2.0 mi North - - N/A Snow Light Snow
8:15 PM 32.0 °F - 32.0 °F 100% 29.98 in 2.5 mi North - - N/A Snow Light Snow
8:35 PM 32.0 °F - 32.0 °F 100% 29.98 in 1.8 mi North - - N/A Snow Light Snow
8:55 PM 32.0 °F - 32.0 °F 100% 29.99 in 1.5 mi North - - N/A Snow Light Snow
9:15 PM 32.0 °F - 32.0 °F 100% 30.00 in 1.2 mi North - - N/A Snow Light Snow
9:35 PM 32.0 °F - 32.0 °F 100% 30.00 in 1.2 mi North - - N/A Snow Light Snow
9:55 PM 32.0 °F - 32.0 °F 100% 30.01 in 1.8 mi North - - N/A Snow Light Snow
10:15 PM 32.0 °F - 32.0 °F 100% 30.01 in 2.5 mi North - - N/A Snow Light Snow
10:35 PM 32.0 °F - 32.0 °F 100% 30.01 in 2.0 mi North - - N/A Snow Light Snow
10:55 PM 32.0 °F - 32.0 °F 100% 30.01 in 2.5 mi North - - N/A Snow Light Snow
11:15 PM 32.0 °F - 32.0 °F 100% 30.02 in 2.5 mi North - - N/A Snow Light Snow
11:35 PM 32.0 °F - 32.0 °F 100% 30.02 in 3.0 mi North - - N/A Snow Light Snow
11:55 PM 32.0 °F - 32.0 °F 100% 30.02 in 3.0 mi North - - N/A Snow Light Snow